[[{"header":{"parameterUnit":"m.s-1","parameterCategory":1,"la1":30.2991,"la2":30.254,"lo1":-89.0895,"lo2":-89.0444,"dy":0.0017,"dx":0.0017,"nx":28,"ny":28,"refTime":"2023-08-11T03:00:00:Z","depth":0,"parameterNumber":2,"parameterNumberName":"U-component_of_WINDS"},"data":[0,0,0,0,0,0,0,0,0,0,0,0,0,0,0,0,0,0,0,0,0,0,0,0,0,0,0,0,0,0,0,0,0,0,0,0,0,0,0,0,0,0,0,0,0,0,0,0,0,0,0,0,0,0,0,0,0,0,-0.017,-0.0169,0,-0.0085,-0.0084,-0.0083,0.0012,0.0014,0.0015,0.0016,0.0102,0.0103,0.0104,0,0,0,0,0,0,0,0,0,0,0,0,0,-0.0245,-0.0245,-0.017,-0.0169,-0.0168,-0.0085,-0.0084,-0.0083,0.0012,0.0014,0.0016,0.0017,0.0102,0.0103,0.0104,0,0,0,0,0,0,0,0,0,0,0,0,0,-0.0192,-0.0244,-0.017,-0.011,-0.0104,-0.0086,-0.0084,-0.0083,0.0012,0.0014,0.0016,0.0018,0.0102,0.0103,0.0105,0.0071,0,0,0.0109,0.011,0,0,0,0,0,0,0,0,-0.0195,-0.0189,-0.012,-0.0114,-0.0107,-0.0045,-0.0079,-0.0031,0.0011,-0.0032,0.0017,0.0019,0.0052,0.0057,0.0069,0.0075,0.0079,0.0109,0.011,0.0111,0.0111,0,0,0,0,0,0,0,-0.0199,-0.0192,-0.0136,-0.0119,-0.0111,-0.0087,-0.0077,-0.007,-0.0003,-0.0028,-0.0021,-0.0012,0.0056,0.0067,0.0071,0.008,0.0109,0.011,0.0111,0.0112,0.0068,0.0067,0,0,0,0,0,0,-0.0212,-0.0196,-0.0139,-0.0134,-0.0147,-0.0087,-0.0076,-0.0067,-0.0003,0.0009,-0.0014,-0.0008,0.0063,0.0069,0.0075,0.0043,0.0111,0.0112,0.0113,0.007,0.0068,0.0066,0,0,0,0,0,0,-0.0214,-0.0208,-0.0142,-0.0163,-0.0153,-0.0088,-0.0079,-0.0067,-0.0055,0.0007,0.002,-0.0015,0.0065,0.0073,0.0072,0.0047,0.0113,0.0114,0.0073,0.007,0.0067,-0.0023,0,0,0,0,0,0,-0.0217,-0.0209,-0.0222,-0.0164,-0.0152,-0.0148,-0.008,-0.0066,-0.0053,-0.0044,0.001,0.0021,0.0068,0.007,0.0074,0.005,0.0115,0.0075,0.0071,0.0068,-0.0018,-0.0029,-0.0039,0,0,0,0,0,-0.022,-0.0252,-0.0224,-0.0217,-0.0167,-0.0149,-0.0142,-0.0088,-0.0055,-0.0067,-0.0026,0.0019,0.0049,0.0069,0.0074,0.0051,0.0077,0.0073,0.0068,-0.0013,-0.0027,-0.0039,0,0,0,0,0,0,-0.0317,-0.0244,-0.0211,-0.0226,-0.0194,-0.0133,-0.0147,-0.0105,-0.0082,-0.0075,-0.0008,0.0003,-0.0004,0.0023,0.0044,0.0024,0.007,0.0066,0.0006,-0.0006,-0.0017,-0.0023,0.0116,0,0,0,0,0,-0.034,-0.0332,-0.0268,-0.0287,-0.0273,-0.0213,-0.0203,-0.0163,-0.0128,-0.0114,-0.0073,-0.0041,-0.0023,-0.0013,0.0006,-0.0013,0.0002,-0.0026,-0.0037,-0.0046,-0.0049,-0.0053,-0.0064,0.0051,0.0051,0.0051,0,0,-0.0388,-0.0347,-0.0346,-0.0306,-0.0277,-0.0268,-0.0202,-0.0198,-0.019,-0.0113,-0.011,-0.0079,-0.0037,-0.0046,-0.0048,-0.0023,-0.0077,-0.0051,-0.0059,-0.0058,-0.0059,-0.007,-0.0079,0.0048,0.0048,0.0049,0,0,-0.047,-0.0439,-0.045,-0.0421,-0.0377,-0.0336,-0.0339,-0.0283,-0.0258,-0.0254,-0.0195,-0.0184,-0.0157,-0.0128,-0.0111,-0.0177,-0.0133,-0.0173,-0.0227,-0.0232,-0.0241,-0.0248,-0.0269,-0.0277,-0.0177,-0.0177,-0.0177,0,-0.0535,-0.0521,-0.0461,-0.0458,-0.0441,-0.037,-0.0378,-0.0353,-0.0306,-0.0295,-0.0268,-0.0228,-0.0196,-0.0195,-0.021,-0.0199,-0.0198,-0.0179,-0.0244,-0.0251,-0.0257,-0.0276,-0.0285,-0.0182,-0.0181,-0.0181,-0.018,0,-0.0601,-0.0592,-0.0606,-0.0559,-0.0543,-0.0547,-0.0486,-0.0477,-0.0437,-0.0399,-0.0392,-0.035,-0.0319,-0.0316,-0.0279,-0.0308,-0.0294,-0.0257,-0.0209,-0.0274,-0.0291,-0.0298,-0.0189,-0.0187,-0.0186,-0.0184,0,0,-0.0745,-0.0662,-0.0668,-0.0645,-0.0589,-0.058,-0.0578,-0.0547,-0.0539,-0.0507,-0.0502,-0.0478,-0.0442,-0.0421,-0.0379,-0.0384,-0.0434,-0.0345,-0.0342,-0.0361,-0.046,-0.0487,-0.0497,-0.0405,-0.0406,-0.0407,-0.0462,0,-0.0816,-0.0809,-0.0753,-0.0762,-0.075,-0.068,-0.0678,-0.0642,-0.0605,-0.0589,-0.0547,-0.053,-0.0485,-0.0471,-0.0472,-0.0428,-0.0453,-0.0423,-0.0397,-0.0397,-0.0409,-0.0506,-0.0536,-0.0591,-0.0469,-0.047,-0.0471,0,-0.0898,-0.087,-0.0877,-0.0817,-0.081,-0.0809,-0.0773,-0.0759,-0.0716,-0.0688,-0.0663,-0.0615,-0.0606,-0.0562,-0.0547,-0.0528,-0.0514,-0.049,-0.0491,-0.0486,-0.0438,-0.0501,-0.0607,-0.0615,-0.0481,-0.048,-0.0479,0,-0.0999,-0.0962,-0.0961,-0.0943,-0.0874,-0.0874,-0.0845,-0.0799,-0.0783,-0.0751,-0.0739,-0.0707,-0.069,-0.0665,-0.0608,-0.0582,-0.0599,-0.0551,-0.0573,-0.0575,-0.058,-0.0581,-0.0684,-0.0574,-0.0574,-0.0574,-0.0574,0,-0.1083,-0.109,-0.1004,-0.1004,-0.1007,-0.0942,-0.0947,-0.0911,-0.087,-0.0859,-0.0797,-0.0788,-0.0714,-0.0695,-0.0651,-0.0644,-0.0637,-0.0612,-0.06,-0.0617,-0.062,-0.0606,-0.06,-0.0576,-0.0575,-0.0575,-0.0575,0,-0.1197,-0.114,-0.1133,-0.1067,-0.105,-0.1056,-0.0998,-0.0993,-0.095,-0.0937,-0.093,-0.0863,-0.0837,-0.0778,-0.0737,-0.0707,-0.071,-0.0689,-0.0725,-0.0717,-0.0742,-0.074,-0.0839,-0.0847,-0.0734,-0.0736,-0.0737,0,-0.1254,-0.1257,-0.119,-0.1178,-0.1151,-0.1133,-0.1114,-0.1049,-0.1032,-0.098,-0.098,-0.095,-0.0922,-0.0884,-0.083,-0.0798,-0.0774,-0.0811,-0.0769,-0.0784,-0.0771,-0.0771,-0.0769,-0.082,-0.0822,-0.0823,-0.0824,0,-0.1361,-0.1331,-0.1308,-0.1273,-0.1252,-0.1222,-0.1188,-0.1181,-0.1107,-0.109,-0.1063,-0.1041,-0.0997,-0.0967,-0.0925,-0.0893,-0.0845,-0.0837,-0.084,-0.0857,-0.0877,-0.0864,-0.0748,-0.0836,-0.0834,-0.0834,-0.0833,-0.0833,-0.1446,-0.1444,-0.1395,-0.1369,-0.1336,-0.1305,-0.1296,-0.125,-0.1227,-0.1186,-0.1148,-0.1123,-0.1075,-0.1014,-0.0984,-0.0962,-0.0939,-0.0944,-0.0945,-0.0947,-0.0953,-0.0881,-0.0955,-0.0954,-0.0954,-0.0954,-0.0953,0,-0.1547,-0.1511,-0.1488,-0.1442,-0.142,-0.1377,-0.1336,-0.132,-0.1299,-0.1259,-0.1231,-0.1197,-0.1166,-0.1108,-0.1071,-0.1064,-0.1041,-0.1057,-0.1056,-0.1048,-0.0978,-0.0978,-0.1076,-0.1076,-0.1076,-0.1076,-0.1076,-0.1076,-0.1597,-0.159,-0.1554,-0.1528,-0.1492,-0.1467,-0.1447,-0.1416,-0.1382,-0.1347,-0.132,-0.1283,-0.1234,-0.1192,-0.116,-0.1143,-0.1132,-0.1154,-0.113,-0.1065,-0.1054,-0.1043,-0.1042,-0.1152,-0.1152,-0.1202,-0.1203,-0.1203]},{"header":{"parameterUnit":"m.s-1","parameterCategory":1,"la1":30.2991,"la2":30.254,"lo1":-89.0895,"lo2":-89.0444,"dy":0.0017,"dx":0.0017,"nx":28,"ny":28,"refTime":"2023-08-11T03:00:00:Z","depth":0,"parameterNumber":3,"parameterNumberName":"V-component_of_WINDS"},"data":[0,0,0,0,0,0,0,0,0,0,0,0,0,0,0,0,0,0,0,0,0,0,0,0,0,0,0,0,0,0,0,0,0,0,0,0,0,0,0,0,0,0,0,0,0,0,0,0,0,0,0,0,0,0,0,0,0,0,4.9525,4.9527,0,4.9657,4.9659,4.966,4.9722,4.9722,4.9722,4.9722,4.9847,4.9851,4.9854,0,0,0,0,0,0,0,0,0,0,0,0,0,4.9319,4.9322,4.9525,4.9527,4.9529,4.9657,4.9659,4.9661,4.9722,4.9722,4.9722,4.9722,4.9846,4.985,4.9854,0,0,0,0,0,0,0,0,0,0,0,0,0,4.9425,4.9323,4.9525,4.9575,4.9581,4.9657,4.9659,4.9661,4.9722,4.9722,4.9722,4.9722,4.9845,4.985,4.9855,4.9888,0,0,4.9871,4.9873,0,0,0,0,0,0,0,0,4.9419,4.9432,4.9566,4.9572,4.9578,4.9673,4.9632,4.9737,4.9722,4.9668,4.9722,4.9721,4.9789,4.9799,4.9823,4.9894,4.99,4.9871,4.9874,4.9876,4.9878,0,0,0,0,0,0,0,4.9411,4.9427,4.9577,4.9568,4.9575,4.9588,4.9603,4.9652,4.9727,4.9673,4.9677,4.9693,4.9792,4.9818,4.9827,4.9902,4.9871,4.9875,4.9879,4.9881,5.0008,5.0009,0,0,0,0,0,0,4.9397,4.9421,4.9573,4.9581,4.9497,4.9592,4.9609,4.9643,4.9727,4.974,4.9693,4.9695,4.9809,4.9821,4.9831,4.9878,4.9876,4.9881,4.9884,5.0008,5.0008,5.0009,0,0,0,0,0,0,4.9393,4.941,4.9568,4.9502,4.9524,4.9596,4.9633,4.9645,4.9672,4.9742,4.9755,4.9706,4.981,4.9824,4.9875,4.9883,4.9883,4.9888,5.0008,5.0008,5.0009,4.997,0,0,0,0,0,0,4.9386,4.9408,4.9423,4.9502,4.9527,4.9611,4.9634,4.9648,4.9681,4.9686,4.9758,4.977,4.9811,4.9867,4.988,4.989,4.9892,5.0007,5.0008,5.0009,4.9971,4.9969,4.9967,0,0,0,0,0,4.9379,4.9405,4.9424,4.9442,4.9548,4.9612,4.9625,4.9675,4.9682,4.9697,4.9742,4.9767,4.988,4.9872,4.9887,4.9898,5.0007,5.0008,5.0008,4.9971,4.9969,4.9967,0,0,0,0,0,0,4.9321,4.9416,4.9438,4.9491,4.9543,4.9622,4.9642,4.967,4.9719,4.9721,4.9777,4.9793,4.9839,4.9874,4.9863,4.9936,4.9946,4.9949,4.9912,4.9911,4.9909,4.99,4.9896,0,0,0,0,0,4.9315,4.9362,4.9441,4.9479,4.9505,4.9569,4.9599,4.9633,4.9688,4.9709,4.9758,4.9808,4.9855,4.9885,4.9931,4.9976,4.9993,4.9991,4.999,4.9988,4.9991,5.0018,5.0019,5.0011,5.0011,5.0011,0,0,4.9301,4.9359,4.9385,4.947,4.9514,4.9559,4.9587,4.9633,4.9667,4.9715,4.9768,4.9805,4.9865,4.9913,4.9937,4.9943,4.9997,4.9989,4.9987,4.9991,5.0019,5.0019,5.002,5.0012,5.0012,5.0012,0,0,4.9301,4.9349,4.9389,4.9434,4.9502,4.9545,4.9554,4.9629,4.9657,4.9712,4.975,4.9789,4.9868,4.991,4.9941,4.9959,4.9984,4.9972,4.9963,4.9989,4.999,4.9991,4.9998,5.0,4.9974,4.9974,4.9974,0,4.9275,4.9348,4.9404,4.945,4.9485,4.9535,4.9574,4.9614,4.9692,4.9715,4.9722,4.9825,4.9868,4.9927,4.9932,4.9955,4.9967,4.9964,4.9986,4.9987,4.9989,4.9997,4.9999,4.9972,4.9972,4.9973,4.9973,0,4.9313,4.9363,4.9386,4.9465,4.9504,4.9545,4.9605,4.9637,4.9668,4.9709,4.9764,4.9818,4.9878,4.9894,4.9922,4.9958,4.996,4.9976,4.9986,4.9987,4.9995,4.9998,4.997,4.997,4.9971,4.9971,0,0,4.9279,4.9392,4.9399,4.9437,4.9517,4.9555,4.9598,4.966,4.9687,4.9739,4.9777,4.9844,4.986,4.9895,4.9929,4.9952,4.9964,4.9965,4.9967,4.9964,5.0008,4.9996,4.9999,4.9981,4.9982,4.9983,5.0003,0,4.9291,4.9375,4.9428,4.949,4.9536,4.9585,4.9623,4.9675,4.9715,4.9758,4.9801,4.9849,4.9865,4.9887,4.9912,4.9957,4.9974,4.9956,5.0016,5.0017,5.0001,5.0003,4.9991,5.0008,5.0006,5.0007,5.0007,0,4.9316,4.9372,4.944,4.9517,4.9539,4.9572,4.9634,4.9676,4.9735,4.9763,4.9804,4.9839,4.9885,4.9892,4.9956,4.9944,4.9971,4.9997,4.9998,5.0006,5.0013,5.0012,5.0014,5.0017,5.0013,5.0012,5.0012,0,4.9286,4.9378,4.9431,4.9461,4.9552,4.9575,4.9613,4.9673,4.9708,4.9761,4.9784,4.984,4.987,4.9912,4.9961,4.9961,5.0021,5.0031,5.0044,5.0043,5.0055,5.0053,5.0062,5.007,5.007,5.007,5.007,0,4.9294,4.9334,4.942,4.9452,4.9498,4.9557,4.96,4.9642,4.9695,4.9735,4.9779,4.9815,4.9877,4.992,4.9958,5.0007,5.0019,5.0042,5.0052,5.0039,5.0036,5.0058,5.0059,5.0071,5.0071,5.007,5.007,0,4.9269,4.9328,4.9389,4.9472,4.9493,4.9524,4.9593,4.9626,4.9669,4.9719,4.9734,4.9801,4.9855,4.9908,4.9978,5.0004,5.0052,5.0064,5.0033,5.0039,5.0049,5.0048,5.0073,5.008,5.0082,5.0081,5.0081,0,4.927,4.9303,4.939,4.9423,4.9461,4.9511,4.9548,4.9607,4.9643,4.9715,4.9738,4.9796,4.9846,4.9929,4.9982,5.0037,5.0051,5.0056,5.006,5.0047,5.0053,5.0051,5.0055,5.0055,5.0054,5.0054,5.0054,0,4.9268,4.9296,4.9349,4.9414,4.9457,4.9509,4.9562,4.9585,4.9654,4.9692,4.9749,4.9788,4.9863,4.9919,4.9981,5.0018,5.0047,5.0053,5.0059,5.0047,5.0028,5.004,5.003,5.0052,5.0052,5.0052,5.0052,5.0053,4.9257,4.9289,4.9357,4.9415,4.9462,4.9512,4.9548,4.9597,4.9647,4.9715,4.9746,4.9804,4.9863,4.995,4.9986,5.0031,5.0039,5.0047,5.0049,5.0051,5.0049,5.002,5.0042,5.0042,5.0042,5.0042,5.0043,0,4.9258,4.9305,4.9358,4.9434,4.9479,4.9506,4.9567,4.9603,4.9655,4.9709,4.9759,4.9825,4.9881,4.9939,4.9998,5.0023,5.0038,5.0036,5.0036,5.0044,5.0038,5.0028,5.0024,5.0024,5.0024,5.0023,5.0023,5.0023,4.9264,4.9321,4.9358,4.9438,4.9483,4.9544,4.9577,4.9622,4.9667,4.974,4.9788,4.9828,4.9884,4.9947,4.9999,5.0015,5.0035,5.003,5.0049,5.0043,5.0044,5.0045,5.0036,5.0033,5.0033,5.0052,5.0052,5.0052]}]]